Notices

What's New in latest Release from April 7th, 2021:

- Updated Glossary, including Speed of Maximum Gust, and Total Hourly Precipitation

- Updated national and regional climate services offices contacts and prices information

- Addition of station inventory lists for 1981-2010, 1971-2000, and 1961-1990 Normals.

If you haven't already, please take our survey and provide feedback about our website: https://eccc.sondage-survey.ca/f/LanguageSelection.aspx?s=442ca660-fcf1-47c0-95a9-59707d6fd709

Hourly Data Report for April 30, 2018

CLYDE RIVER A
NUNAVUT
Current Station Operator: NAVCAN

70°29'09.000" N
68°31'01.000" W
26.50 m
2400804
71090
YCY

Download Data

Hourly Data (April 2018)
Hourly Data Report for April 30, 2018
TIME
LST
Temp Definition
°C
Dew Point Definition
°C
Rel Hum Definition
%
Precip. Amount Definition
mm

Wind Dir Definition
10's deg

Wind Spd Definition
km/h
Visibility Definition
km
Stn Press Definition
kPa
Hmdx Definition


Wind Chill Definition


Weather Definition


00:00 -11.4 -12.7 90 0.0 14 21 4.0 99.77   -20 Snow
01:00 -11.8 -13.4 88 0.0 14 15 16.1 99.76   -19 Snow
02:00 -12.3 -14.3 85 0.0 13 11 16.1 99.74   -18 Snow
03:00 -14.2 -16.1 86 0.0 13 17 16.1 99.68   -22 LegendNANA
04:00 -14.2 -15.7 89 0.0 12 15 16.1 99.63   -22 LegendNANA
05:00 -12.7 -14.2 89 0.0 9 11 16.1 99.57   -19 Snow
06:00 -12.5 -13.8 90 0.0 9 13 16.1 99.51   -19 Snow
07:00 -11.8 -13.4 88 0.0 5 9 16.1 99.46   -17 Snow
08:00 -11.4 -13.2 87 0.0 4 11 4.8 99.39   -17 Snow
09:00 -11.2 -13.1 86 0.0 2 13 6.4 99.31   -18 Snow
10:00 -10.6 -12.5 86 0.0 36 13 1.6 99.25   -17 Snow
11:00 -9.5 -11.6 85 0.0 3 15 2.4 99.19   -16 Snow
12:00 -8.9 -11.0 85 0.0 4 18 3.2 99.14   -16 Snow
13:00 -8.6 -10.7 85 0.0 3 18 4.8 99.11   -16 Snow
14:00 -8.8 -10.7 86 0.0 2 18 8.1 99.07   -16 Snow
15:00 -8.7 -10.5 87 0.0 2 21 2.0 99.05   -16 Snow
16:00 -8.8 -10.3 89 0.0 36 18 3.6 99.01   -16 Snow
17:00 -8.7 -10.1 90 0.0 36 22 1.2 98.98   -17 Snow
18:00 -8.8 -10.2 90 0.0 35 22 3.2 98.95   -17 Snow
19:00 -8.8 -10.0 91 0.0 33 30 4.0 98.90   -18 Snow
20:00 -8.3 -9.5 91 0.0 35 30 3.2 98.89   -17 Snow
21:00 -8.8 -9.9 92 0.0 2 24 4.0 98.90   -17 Snow
22:00 -10.1 -11.3 91 0.0 1 21 8.1 98.91   -18 Snow
23:00 -9.0 -10.2 91 0.0 1 21 8.1 98.93   -17 Snow

Notes on Data Quality.

Legend

  • E = Estimated
  • M = Missing
  • NA = Not Available*
  • [empty] = Indicates an unobserved value
Date modified: